| time (UTC) | temp F | wind direction | speed MPH | gust MPH | rain 1hr in | rain 24hr in | rain mn in | humidity % | barometer mb |
| 20260510173448 | 76 | 323 | 5.0 | 11.0 | 0.00 | 0.01 | 0.00 | 60 | 1013.0 |
| 20260510172944 | 76 | 355 | 5.0 | 11.0 | 0.00 | 0.01 | 0.00 | 61 | 1013.0 |
| 20260510172445 | 77 | 355 | 4.0 | 11.0 | 0.00 | 0.01 | 0.00 | 57 | 1013.0 |
| 20260510171945 | 76 | 263 | 5.0 | 13.0 | 0.00 | 0.01 | 0.00 | 58 | 1013.0 |
| 20260510171441 | 76 | 233 | 5.0 | 13.0 | 0.00 | 0.01 | 0.00 | 60 | 1013.0 |
| 20260510170958 | 75 | 0 | 5.0 | 14.0 | 0.00 | 0.01 | 0.00 | 56 | 1013.0 |
| 20260510170440 | 75 | 0 | 4.0 | 14.0 | 0.00 | 0.01 | 0.00 | 57 | 1013.0 |
| 20260510170210 | 74 | 255 | 4.0 | 9.0 | 0.00 | 0.01 | 0.00 | 60 | 1013.0 |
| 20260510165438 | 74 | 344 | 4.0 | 12.0 | 0.00 | 0.01 | 0.00 | 58 | 1013.0 |
| 20260510165203 | 74 | 346 | 3.0 | 12.0 | 0.00 | 0.01 | 0.00 | 57 | 1013.0 |
| 20260510164437 | 75 | 344 | 3.0 | 9.0 | 0.00 | 0.01 | 0.00 | 61 | 1013.1 |
| 20260510163937 | 75 | 336 | 3.0 | 9.0 | 0.00 | 0.01 | 0.00 | 59 | 1013.0 |
| 20260510163438 | 74 | 311 | 3.0 | 9.0 | 0.00 | 0.01 | 0.00 | 62 | 1013.0 |
| 20260510162937 | 75 | 258 | 3.0 | 9.0 | 0.00 | 0.01 | 0.00 | 60 | 1012.9 |
| 20260510162437 | 75 | 343 | 3.0 | 9.0 | 0.00 | 0.01 | 0.00 | 61 | 1012.9 |
| 20260510162155 | 74 | 250 | 3.0 | 10.0 | 0.00 | 0.01 | 0.00 | 61 | 1012.9 |
| 20260510161438 | 74 | 213 | 3.0 | 10.0 | 0.00 | 0.01 | 0.00 | 59 | 1012.9 |
| 20260510160934 | 74 | 211 | 4.0 | 10.0 | 0.00 | 0.01 | 0.00 | 61 | 1012.8 |
| 20260510160435 | 74 | 263 | 4.0 | 10.0 | 0.00 | 0.01 | 0.00 | 58 | 1012.8 |
| 20260510155934 | 74 | 342 | 3.0 | 9.0 | 0.00 | 0.01 | 0.00 | 59 | 1012.8 |
| 20260510155446 | 73 | 265 | 3.0 | 9.0 | 0.00 | 0.01 | 0.00 | 62 | 1012.9 |
| 20260510154934 | 73 | 229 | 4.0 | 9.0 | 0.00 | 0.02 | 0.00 | 61 | 1012.9 |
| 20260510154432 | 73 | 236 | 3.0 | 8.0 | 0.00 | 0.02 | 0.00 | 63 | 1012.9 |
| 20260510153931 | 73 | 261 | 3.0 | 8.0 | 0.00 | 0.02 | 0.00 | 62 | 1012.8 |
| 20260510153432 | 73 | 355 | 3.0 | 5.0 | 0.00 | 0.03 | 0.00 | 63 | 1012.9 |
| 20260510152932 | 73 | 253 | 3.0 | 10.0 | 0.00 | 0.03 | 0.00 | 66 | 1012.8 |
| 20260510152438 | 73 | 287 | 4.0 | 10.0 | 0.00 | 0.04 | 0.00 | 62 | 1012.8 |
| 20260510152419 | 73 | 271 | 3.0 | 8.0 | 0.00 | 0.04 | 0.00 | 63 | 1012.9 |
| 20260510151430 | 72 | 306 | 3.0 | 7.0 | 0.00 | 0.05 | 0.00 | 63 | 1012.8 |
| 20260510150928 | 72 | 238 | 3.0 | 8.0 | 0.00 | 0.05 | 0.00 | 64 | 1012.8 |
| 20260510150426 | 72 | 254 | 3.0 | 11.0 | 0.00 | 0.06 | 0.00 | 63 | 1012.9 |
| 20260510145929 | 72 | 234 | 4.0 | 11.0 | 0.00 | 0.06 | 0.00 | 63 | 1012.9 |
| 20260510145651 | 72 | 311 | 4.0 | 9.0 | 0.00 | 0.07 | 0.00 | 64 | 1012.9 |
| 20260510144929 | 72 | 243 | 4.0 | 8.0 | 0.00 | 0.07 | 0.00 | 65 | 1012.8 |
| 20260510144421 | 71 | 208 | 3.0 | 8.0 | 0.00 | 0.08 | 0.00 | 66 | 1012.7 |
| 20260510144407 | 71 | 200 | 2.0 | 7.0 | 0.00 | 0.08 | 0.00 | 69 | 1012.8 |
| 20260510143411 | 70 | 198 | 3.0 | 9.0 | 0.00 | 0.08 | 0.00 | 69 | 1012.8 |
| 20260510143128 | 70 | 211 | 3.0 | 9.0 | 0.00 | 0.09 | 0.00 | 69 | 1012.8 |
| 20260510142623 | 70 | 209 | 2.0 | 6.0 | 0.00 | 0.09 | 0.00 | 69 | 1012.7 |
| 20260510141852 | 70 | 236 | 2.0 | 6.0 | 0.00 | 0.10 | 0.00 | 68 | 1012.7 |
| 20260510141614 | 69 | 223 | 3.0 | 6.0 | 0.00 | 0.10 | 0.00 | 71 | 1012.7 |
| 20260510140839 | 69 | 248 | 3.0 | 6.0 | 0.00 | 0.10 | 0.00 | 71 | 1012.8 |
| 20260510140333 | 68 | 221 | 3.0 | 9.0 | 0.00 | 0.10 | 0.00 | 72 | 1012.8 |
| 20260510135826 | 68 | 200 | 3.0 | 9.0 | 0.00 | 0.10 | 0.00 | 73 | 1012.9 |
| 20260510135320 | 68 | 217 | 3.0 | 7.0 | 0.00 | 0.10 | 0.00 | 71 | 1012.9 |
| 20260510134815 | 67 | 210 | 3.0 | 7.0 | 0.00 | 0.10 | 0.00 | 74 | 1012.9 |
| 20260510134309 | 67 | 207 | 2.0 | 7.0 | 0.00 | 0.10 | 0.00 | 73 | 1012.8 |
| 20260510133805 | 66 | 250 | 2.0 | 5.0 | 0.00 | 0.10 | 0.00 | 75 | 1012.9 |
| 20260510133257 | 66 | 217 | 1.0 | 5.0 | 0.00 | 0.10 | 0.00 | 78 | 1012.8 |
| 20260510132750 | 65 | 214 | 2.0 | 4.0 | 0.00 | 0.10 | 0.00 | 77 | 1012.7 |
| 20260510132244 | 64 | 211 | 1.0 | 4.0 | 0.00 | 0.10 | 0.00 | 80 | 1012.8 |
| 20260510131739 | 64 | 206 | 1.0 | 3.0 | 0.00 | 0.10 | 0.00 | 83 | 1012.8 |
| 20260510131233 | 64 | 205 | 1.0 | 3.0 | 0.00 | 0.10 | 0.00 | 85 | 1012.7 |
| 20260510130726 | 62 | 205 | 1.0 | 4.0 | 0.00 | 0.10 | 0.00 | 86 | 1012.9 |
| 20260510130222 | 62 | 205 | 1.0 | 4.0 | 0.00 | 0.10 | 0.00 | 87 | 1012.9 |
| 20260510125946 | 61 | 252 | 0.0 | 4.0 | 0.00 | 0.10 | 0.00 | 88 | 1012.9 |
| 20260510125209 | 60 | 320 | 0.0 | 2.0 | 0.00 | 0.10 | 0.00 | 90 | 1012.9 |
| 20260510124702 | 60 | 59 | 0.0 | 0.0 | 0.00 | 0.10 | 0.00 | 91 | 1012.9 |
| 20260510124652 | 59 | 78 | 0.0 | 0.0 | 0.00 | 0.10 | 0.00 | 92 | 1012.8 |
| 20260510123650 | 58 | 78 | 0.0 | 0.0 | 0.00 | 0.10 | 0.00 | 93 | 1012.8 |
| 20260510123144 | 57 | 78 | 0.0 | 0.0 | 0.00 | 0.10 | 0.00 | 93 | 1012.9 |
| 20260510122902 | 56 | 78 | 0.0 | 0.0 | 0.00 | 0.10 | 0.00 | 93 | 1012.9 |
| 20260510122134 | 56 | 78 | 0.0 | 0.0 | 0.00 | 0.10 | 0.00 | 93 | 1012.8 |
| 20260510121628 | 55 | 78 | 0.0 | 0.0 | 0.00 | 0.10 | 0.00 | 94 | 1012.8 |
| 20260510121123 | 55 | 78 | 0.0 | 0.0 | 0.00 | 0.10 | 0.00 | 94 | 1012.7 |
| 20260510120616 | 54 | 78 | 0.0 | 0.0 | 0.00 | 0.10 | 0.00 | 94 | 1012.7 |
| 20260510120122 | 54 | 78 | 0.0 | 0.0 | 0.00 | 0.10 | 0.00 | 94 | 1012.6 |
| 20260510120048 | 53 | 78 | 0.0 | 0.0 | 0.00 | 0.10 | 0.00 | 94 | 1012.5 |
| 20260510115056 | 53 | 78 | 0.0 | 0.0 | 0.00 | 0.10 | 0.00 | 94 | 1012.5 |
| 20260510114551 | 53 | 78 | 0.0 | 0.0 | 0.00 | 0.10 | 0.00 | 94 | 1012.4 |
| 20260510114529 | 52 | 78 | 0.0 | 0.0 | 0.00 | 0.10 | 0.00 | 94 | 1012.2 |
| 20260510113545 | 52 | 78 | 0.0 | 0.0 | 0.00 | 0.10 | 0.00 | 94 | 1012.2 |
| 20260510113043 | 52 | 78 | 0.0 | 0.0 | 0.00 | 0.10 | 0.00 | 94 | 1012.1 |
| 20260510112542 | 51 | 78 | 0.0 | 0.0 | 0.00 | 0.10 | 0.00 | 94 | 1012.0 |
| 20260510112048 | 51 | 78 | 0.0 | 0.0 | 0.00 | 0.10 | 0.00 | 94 | 1012.0 |
| 20260510111543 | 51 | 78 | 0.0 | 0.0 | 0.00 | 0.10 | 0.00 | 94 | 1012.0 |
| 20260510111042 | 51 | 78 | 0.0 | 0.0 | 0.00 | 0.10 | 0.00 | 94 | 1011.9 |
| 20260510110540 | 51 | 78 | 0.0 | 0.0 | 0.00 | 0.10 | 0.00 | 94 | 1011.9 |
| 20260510110051 | 51 | 78 | 0.0 | 0.0 | 0.00 | 0.10 | 0.00 | 94 | 1011.9 |
| 20260510105804 | 50 | 78 | 0.0 | 0.0 | 0.00 | 0.10 | 0.00 | 94 | 1011.8 |
| 20260510105037 | 50 | 78 | 0.0 | 2.0 | 0.00 | 0.10 | 0.00 | 94 | 1011.8 |
| 20260510104534 | 50 | 78 | 0.0 | 2.0 | 0.00 | 0.10 | 0.00 | 94 | 1011.9 |
| 20260510104039 | 50 | 78 | 0.0 | 2.0 | 0.00 | 0.10 | 0.00 | 94 | 1012.0 |
| 20260510103535 | 50 | 78 | 1.0 | 2.0 | 0.00 | 0.10 | 0.00 | 94 | 1012.1 |
| 20260510103033 | 50 | 78 | 0.0 | 2.0 | 0.00 | 0.10 | 0.00 | 94 | 1011.9 |
| 20260510102535 | 49 | 78 | 0.0 | 1.0 | 0.00 | 0.10 | 0.00 | 94 | 1012.0 |
| 20260510102033 | 49 | 78 | 0.0 | 2.0 | 0.00 | 0.10 | 0.00 | 94 | 1011.8 |
| 20260510101527 | 49 | 78 | 0.0 | 2.0 | 0.00 | 0.10 | 0.00 | 94 | 1011.8 |
| 20260510101026 | 49 | 78 | 0.0 | 1.0 | 0.00 | 0.10 | 0.00 | 94 | 1011.5 |
| 20260510100531 | 49 | 78 | 0.0 | 0.0 | 0.00 | 0.10 | 0.00 | 94 | 1011.4 |
| 20260510100028 | 49 | 78 | 0.0 | 0.0 | 0.00 | 0.10 | 0.00 | 94 | 1011.4 |
| 20260510095747 | 49 | 78 | 0.0 | 1.0 | 0.00 | 0.10 | 0.00 | 93 | 1011.4 |
| 20260510095028 | 49 | 78 | 0.0 | 2.0 | 0.00 | 0.10 | 0.00 | 94 | 1011.4 |
| 20260510094524 | 49 | 78 | 0.0 | 2.0 | 0.00 | 0.10 | 0.00 | 93 | 1011.3 |
| 20260510094026 | 50 | 78 | 0.0 | 1.0 | 0.00 | 0.10 | 0.00 | 94 | 1011.0 |
| 20260510093525 | 50 | 78 | 0.0 | 1.0 | 0.00 | 0.10 | 0.00 | 94 | 1011.0 |
| 20260510093026 | 50 | 78 | 0.0 | 1.0 | 0.00 | 0.10 | 0.00 | 93 | 1011.0 |
| 20260510092522 | 50 | 78 | 0.0 | 1.0 | 0.00 | 0.10 | 0.00 | 93 | 1011.0 |
| 20260510092023 | 50 | 78 | 0.0 | 0.0 | 0.00 | 0.10 | 0.00 | 94 | 1011.1 |
| 20260510091759 | 50 | 78 | 0.0 | 1.0 | 0.00 | 0.10 | 0.00 | 94 | 1011.1 |
| 20260510091024 | 50 | 78 | 0.0 | 1.0 | 0.00 | 0.10 | 0.00 | 93 | 1011.0 |
| 20260510090520 | 50 | 78 | 0.0 | 0.0 | 0.00 | 0.10 | 0.00 | 94 | 1010.9 |
| 20260510090019 | 50 | 78 | 0.0 | 0.0 | 0.00 | 0.10 | 0.00 | 94 | 1010.9 |
| 20260510085520 | 50 | 78 | 0.0 | 1.0 | 0.00 | 0.10 | 0.00 | 94 | 1011.1 |
| 20260510085021 | 50 | 78 | 0.0 | 2.0 | 0.00 | 0.10 | 0.00 | 94 | 1010.9 |
| 20260510084520 | 50 | 78 | 1.0 | 2.0 | 0.00 | 0.10 | 0.00 | 94 | 1011.0 |
| 20260510084020 | 50 | 78 | 1.0 | 2.0 | 0.00 | 0.10 | 0.00 | 94 | 1011.1 |
| 20260510083744 | 50 | 78 | 1.0 | 2.0 | 0.00 | 0.10 | 0.00 | 93 | 1011.1 |
| 20260510083514 | 50 | 78 | 1.0 | 3.0 | 0.00 | 0.10 | 0.00 | 94 | 1011.1 |
| 20260510082520 | 50 | 78 | 2.0 | 4.0 | 0.00 | 0.10 | 0.00 | 93 | 1011.2 |
| 20260510082328 | 51 | 5 | 2.0 | 4.0 | 0.00 | 0.10 | 0.00 | 94 | 1011.4 |
| 20260510082246 | 50 | 5 | 3.0 | 9.0 | 0.00 | 0.10 | 0.00 | 94 | 1010.9 |
| 20260510082156 | 50 | 78 | 1.0 | 4.0 | 0.00 | 0.10 | 0.00 | 94 | 1011.1 |
| 20260510082025 | 50 | 80 | 2.0 | 4.0 | 0.00 | 0.10 | 0.00 | 94 | 1011.1 |
| 20260510081210 | 51 | 5 | 2.0 | 4.0 | 0.00 | 0.10 | 0.00 | 94 | 1011.0 |
| 20260510080456 | 51 | 5 | 1.0 | 3.0 | 0.00 | 0.10 | 0.00 | 94 | 1011.0 |
| 20260510075637 | 50 | 5 | 2.0 | 9.0 | 0.00 | 0.10 | 0.00 | 94 | 1011.6 |
| 20260510074518 | 48 | 265 | 2.0 | 9.0 | 0.00 | 0.10 | 0.00 | 94 | 1010.8 |
| 20260510074018 | 46 | 315 | 1.0 | 8.0 | 0.00 | 0.10 | 0.00 | 93 | 1011.4 |
| 20260510073521 | 46 | 92 | 0.0 | 0.0 | 0.00 | 0.10 | 0.00 | 93 | 1010.5 |
| 20260510073022 | 46 | 92 | 0.0 | 0.0 | 0.00 | 0.10 | 0.00 | 93 | 1010.4 |
| 20260510072519 | 46 | 92 | 0.0 | 0.0 | 0.00 | 0.10 | 0.00 | 93 | 1010.6 |
| 20260510072025 | 45 | 92 | 0.0 | 0.0 | 0.00 | 0.10 | 0.00 | 93 | 1010.5 |
| 20260510071520 | 45 | 92 | 0.0 | 0.0 | 0.00 | 0.10 | 0.00 | 93 | 1010.5 |
| 20260510071016 | 46 | 92 | 0.0 | 0.0 | 0.00 | 0.10 | 0.00 | 93 | 1010.5 |
| 20260510070514 | 46 | 92 | 0.0 | 0.0 | 0.00 | 0.10 | 0.00 | 93 | 1010.5 |
| 20260510070016 | 46 | 92 | 0.0 | 0.0 | 0.00 | 0.10 | 0.00 | 93 | 1010.5 |
| 20260510065512 | 46 | 92 | 0.0 | 0.0 | 0.00 | 0.10 | 0.00 | 93 | 1010.5 |
| 20260510065012 | 46 | 92 | 0.0 | 0.0 | 0.00 | 0.10 | 0.00 | 93 | 1010.5 |
| 20260510064511 | 46 | 92 | 0.0 | 0.0 | 0.00 | 0.10 | 0.00 | 93 | 1010.2 |
| 20260510064238 | 46 | 92 | 0.0 | 1.0 | 0.00 | 0.10 | 0.00 | 93 | 1010.2 |
| 20260510063731 | 46 | 92 | 0.0 | 1.0 | 0.00 | 0.10 | 0.00 | 93 | 1010.2 |
| 20260510063006 | 46 | 92 | 0.0 | 1.0 | 0.00 | 0.10 | 0.00 | 93 | 1010.1 |
| 20260510062506 | 46 | 92 | 0.0 | 1.0 | 0.00 | 0.10 | 0.00 | 93 | 1010.2 |
| 20260510062233 | 47 | 92 | 0.0 | 1.0 | 0.00 | 0.10 | 0.00 | 93 | 1010.1 |
| 20260510061503 | 47 | 92 | 0.0 | 0.0 | 0.00 | 0.10 | 0.00 | 93 | 1010.0 |
| 20260510061008 | 47 | 92 | 0.0 | 0.0 | 0.00 | 0.10 | 0.00 | 93 | 1009.9 |
| 20260510060450 | 47 | 92 | 0.0 | 0.0 | 0.00 | 0.10 | 0.00 | 93 | 1010.0 |
| 20260510055943 | 47 | 92 | 0.0 | 0.0 | 0.00 | 0.10 | 0.00 | 93 | 1010.0 |
| 20260510055438 | 47 | 92 | 0.0 | 0.0 | 0.00 | 0.10 | 0.00 | 93 | 1010.1 |
| 20260510054932 | 47 | 92 | 0.0 | 0.0 | 0.00 | 0.10 | 0.00 | 93 | 1010.2 |
| 20260510054422 | 47 | 92 | 0.0 | 0.0 | 0.00 | 0.10 | 0.00 | 93 | 1010.2 |
| 20260510054138 | 47 | 92 | 0.0 | 1.0 | 0.00 | 0.10 | 0.00 | 93 | 1010.2 |
| 20260510053415 | 47 | 92 | 0.0 | 1.0 | 0.00 | 0.10 | 0.00 | 93 | 1010.3 |
| 20260510053130 | 48 | 92 | 0.0 | 1.0 | 0.00 | 0.10 | 0.00 | 93 | 1010.3 |
| 20260510052403 | 47 | 92 | 0.0 | 0.0 | 0.00 | 0.10 | 0.00 | 93 | 1010.3 |
| 20260510051858 | 47 | 92 | 0.0 | 0.0 | 0.00 | 0.10 | 0.00 | 93 | 1010.4 |
| 20260510051350 | 48 | 92 | 0.0 | 0.0 | 0.00 | 0.10 | 0.00 | 93 | 1010.4 |
| 20260510050847 | 48 | 92 | 0.0 | 0.0 | 0.00 | 0.10 | 0.00 | 93 | 1010.4 |
| 20260510050605 | 48 | 92 | 0.0 | 0.0 | 0.00 | 0.10 | 0.00 | 92 | 1010.5 |
| 20260510050058 | 48 | 92 | 0.0 | 0.0 | 0.00 | 0.10 | 0.00 | 93 | 1010.4 |
| 20260510045327 | 48 | 92 | 0.0 | 0.0 | 0.00 | 0.10 | 0.00 | 93 | 1010.4 |
| 20260510045048 | 48 | 92 | 0.0 | 0.0 | 0.00 | 0.10 | 0.00 | 92 | 1010.5 |
| 20260510044314 | 48 | 92 | 0.0 | 0.0 | 0.00 | 0.10 | 0.00 | 92 | 1010.5 |
| 20260510043808 | 49 | 92 | 0.0 | 0.0 | 0.00 | 0.10 | 0.00 | 93 | 1010.5 |
| 20260510043302 | 49 | 92 | 0.0 | 0.0 | 0.00 | 0.10 | 0.00 | 92 | 1010.5 |
| 20260510042757 | 49 | 92 | 0.0 | 0.0 | 0.00 | 0.10 | 0.00 | 92 | 1010.6 |
| 20260510042250 | 49 | 92 | 0.0 | 0.0 | 0.00 | 0.10 | 0.00 | 92 | 1010.6 |
| 20260510041744 | 49 | 92 | 0.0 | 0.0 | 0.00 | 0.10 | 0.00 | 93 | 1010.6 |
| 20260510041238 | 49 | 92 | 0.0 | 0.0 | 0.00 | 0.10 | 0.00 | 92 | 1010.6 |
| 20260510040731 | 49 | 92 | 0.0 | 0.0 | 0.00 | 0.10 | 0.00 | 92 | 1010.6 |
| 20260510040226 | 49 | 92 | 0.0 | 0.0 | 0.00 | 0.10 | 0.00 | 92 | 1010.6 |
| 20260510035720 | 49 | 92 | 0.0 | 0.0 | 0.00 | 0.10 | 0.10 | 92 | 1010.6 |
| 20260510035214 | 49 | 92 | 0.0 | 0.0 | 0.00 | 0.10 | 0.10 | 92 | 1010.7 |
| 20260510034935 | 50 | 92 | 0.0 | 0.0 | 0.00 | 0.10 | 0.10 | 92 | 1010.7 |
| 20260510034202 | 50 | 92 | 0.0 | 0.0 | 0.00 | 0.10 | 0.10 | 92 | 1010.6 |
| 20260510033659 | 50 | 92 | 0.0 | 0.0 | 0.00 | 0.10 | 0.10 | 92 | 1010.6 |
| 20260510033146 | 50 | 92 | 0.0 | 0.0 | 0.00 | 0.10 | 0.10 | 92 | 1010.7 |
| 20260510032640 | 50 | 92 | 0.0 | 0.0 | 0.00 | 0.10 | 0.10 | 92 | 1010.6 |
| 20260510032134 | 50 | 92 | 0.0 | 0.0 | 0.00 | 0.10 | 0.10 | 92 | 1010.6 |
| 20260510031628 | 50 | 92 | 0.0 | 0.0 | 0.00 | 0.10 | 0.10 | 92 | 1010.6 |
| 20260510031122 | 51 | 92 | 0.0 | 0.0 | 0.00 | 0.10 | 0.10 | 92 | 1010.5 |
| 20260510030617 | 51 | 92 | 0.0 | 0.0 | 0.00 | 0.10 | 0.10 | 92 | 1010.4 |
| 20260510030113 | 51 | 92 | 0.0 | 0.0 | 0.00 | 0.10 | 0.10 | 92 | 1010.5 |
| 20260510030055 | 51 | 92 | 0.0 | 0.0 | 0.00 | 0.10 | 0.10 | 92 | 1010.4 |
| 20260510025320 | 51 | 92 | 0.0 | 0.0 | 0.00 | 0.10 | 0.10 | 92 | 1010.4 |
| 20260510024550 | 52 | 92 | 0.0 | 0.0 | 0.00 | 0.10 | 0.10 | 92 | 1010.2 |
| 20260510024043 | 52 | 92 | 0.0 | 0.0 | 0.00 | 0.10 | 0.10 | 92 | 1010.2 |
| 20260510023537 | 52 | 92 | 0.0 | 0.0 | 0.00 | 0.10 | 0.10 | 91 | 1010.2 |
| 20260510023029 | 52 | 92 | 0.0 | 1.0 | 0.00 | 0.10 | 0.10 | 91 | 1010.1 |
| 20260510022525 | 52 | 92 | 0.0 | 1.0 | 0.00 | 0.10 | 0.10 | 91 | 1010.2 |
| 20260510022241 | 53 | 92 | 0.0 | 0.0 | 0.00 | 0.10 | 0.10 | 91 | 1010.4 |
| 20260510021738 | 53 | 92 | 0.0 | 0.0 | 0.00 | 0.10 | 0.10 | 91 | 1010.3 |
| 20260510021019 | 53 | 92 | 0.0 | 1.0 | 0.00 | 0.10 | 0.10 | 91 | 1010.3 |
| 20260510020500 | 53 | 92 | 0.0 | 1.0 | 0.00 | 0.10 | 0.10 | 91 | 1010.2 |
| 20260510015955 | 53 | 92 | 0.0 | 1.0 | 0.00 | 0.10 | 0.10 | 91 | 1010.2 |
| 20260510015455 | 53 | 92 | 0.0 | 1.0 | 0.00 | 0.10 | 0.10 | 91 | 1010.1 |
| 20260510015215 | 54 | 92 | 0.0 | 1.0 | 0.00 | 0.10 | 0.10 | 91 | 1010.1 |
| 20260510014717 | 54 | 92 | 0.0 | 1.0 | 0.00 | 0.10 | 0.10 | 91 | 1010.0 |
| 20260510013954 | 54 | 92 | 0.0 | 2.0 | 0.00 | 0.10 | 0.10 | 91 | 1010.0 |
| 20260510013451 | 54 | 92 | 0.0 | 2.0 | 0.00 | 0.10 | 0.10 | 91 | 1009.9 |
| 20260510012947 | 54 | 92 | 0.0 | 2.0 | 0.00 | 0.10 | 0.10 | 91 | 1009.9 |
| 20260510012450 | 54 | 92 | 0.0 | 3.0 | 0.00 | 0.10 | 0.10 | 90 | 1009.8 |
| 20260510011948 | 54 | 92 | 0.0 | 3.0 | 0.00 | 0.10 | 0.10 | 90 | 1009.8 |
| 20260510011449 | 54 | 92 | 0.0 | 1.0 | 0.00 | 0.10 | 0.10 | 90 | 1009.7 |
| 20260510010949 | 54 | 92 | 0.0 | 2.0 | 0.00 | 0.10 | 0.10 | 90 | 1009.7 |
| 20260510010449 | 55 | 92 | 0.0 | 2.0 | 0.00 | 0.10 | 0.10 | 90 | 1009.6 |
| 20260510005949 | 55 | 92 | 0.0 | 1.0 | 0.00 | 0.10 | 0.10 | 89 | 1009.6 |
| 20260510005448 | 55 | 92 | 0.0 | 0.0 | 0.00 | 0.10 | 0.10 | 90 | 1009.6 |
| 20260510004949 | 55 | 92 | 0.0 | 0.0 | 0.00 | 0.10 | 0.10 | 89 | 1009.5 |
| 20260510004452 | 55 | 92 | 0.0 | 1.0 | 0.00 | 0.10 | 0.10 | 89 | 1009.5 |
| 20260510003944 | 56 | 92 | 0.0 | 1.0 | 0.00 | 0.10 | 0.10 | 89 | 1009.4 |
| 20260510003443 | 56 | 92 | 0.0 | 2.0 | 0.00 | 0.10 | 0.10 | 88 | 1009.5 |
| 20260510002940 | 56 | 92 | 0.0 | 2.0 | 0.00 | 0.10 | 0.10 | 88 | 1009.4 |
| 20260510002439 | 56 | 92 | 0.0 | 3.0 | 0.00 | 0.10 | 0.10 | 88 | 1009.4 |
| 20260510001935 | 57 | 92 | 1.0 | 3.0 | 0.00 | 0.10 | 0.10 | 88 | 1009.3 |
| 20260510001429 | 57 | 93 | 1.0 | 3.0 | 0.00 | 0.10 | 0.10 | 88 | 1009.2 |
| 20260510000924 | 58 | 93 | 1.0 | 4.0 | 0.00 | 0.10 | 0.10 | 87 | 1009.2 |
| 20260510000418 | 58 | 93 | 1.0 | 4.0 | 0.00 | 0.10 | 0.10 | 87 | 1009.1 |
| 20260509235916 | 58 | 92 | 1.0 | 4.0 | 0.00 | 0.10 | 0.10 | 86 | 1009.1 |
| 20260509235415 | 58 | 96 | 1.0 | 3.0 | 0.00 | 0.10 | 0.10 | 86 | 1009.1 |
| 20260509235137 | 59 | 96 | 2.0 | 3.0 | 0.00 | 0.10 | 0.10 | 86 | 1009.1 |
| 20260509234415 | 59 | 96 | 2.0 | 6.0 | 0.00 | 0.10 | 0.10 | 86 | 1009.2 |
| 20260509233915 | 60 | 96 | 3.0 | 7.0 | 0.00 | 0.10 | 0.10 | 85 | 1009.2 |
| 20260509233413 | 60 | 92 | 2.0 | 7.0 | 0.00 | 0.10 | 0.10 | 85 | 1009.2 |
| 20260509233132 | 60 | 104 | 2.0 | 7.0 | 0.00 | 0.10 | 0.10 | 84 | 1009.2 |
| 20260509232414 | 61 | 107 | 1.0 | 3.0 | 0.00 | 0.10 | 0.10 | 84 | 1009.1 |
| 20260509231912 | 61 | 107 | 2.0 | 4.0 | 0.00 | 0.10 | 0.10 | 83 | 1009.1 |
| 20260509231414 | 61 | 107 | 2.0 | 4.0 | 0.00 | 0.10 | 0.10 | 82 | 1009.1 |
| 20260509230910 | 62 | 107 | 2.0 | 7.0 | 0.00 | 0.10 | 0.10 | 82 | 1009.2 |
| 20260509230634 | 62 | 137 | 2.0 | 7.0 | 0.00 | 0.10 | 0.10 | 81 | 1009.2 |
| 20260509225909 | 62 | 135 | 1.0 | 3.0 | 0.00 | 0.10 | 0.10 | 80 | 1009.2 |
| 20260509225413 | 62 | 135 | 1.0 | 3.0 | 0.00 | 0.10 | 0.10 | 78 | 1009.2 |
| 20260509225129 | 62 | 135 | 1.0 | 2.0 | 0.00 | 0.10 | 0.10 | 78 | 1009.2 |
| 20260509224400 | 62 | 135 | 1.0 | 4.0 | 0.00 | 0.10 | 0.10 | 77 | 1009.1 |
| 20260509223857 | 62 | 135 | 2.0 | 4.0 | 0.00 | 0.10 | 0.10 | 75 | 1009.1 |
| 20260509223354 | 63 | 9 | 2.0 | 4.0 | 0.00 | 0.10 | 0.10 | 75 | 1009.1 |
| 20260509222850 | 63 | 9 | 1.0 | 3.0 | 0.00 | 0.10 | 0.10 | 74 | 1009.1 |
| 20260509222350 | 63 | 9 | 1.0 | 3.0 | 0.00 | 0.10 | 0.10 | 75 | 1009.1 |
| 20260509221851 | 64 | 9 | 0.0 | 2.0 | 0.00 | 0.10 | 0.10 | 76 | 1009.1 |
| 20260509221609 | 63 | 9 | 0.0 | 2.0 | 0.00 | 0.10 | 0.10 | 75 | 1009.2 |
| 20260509220850 | 62 | 9 | 0.0 | 0.0 | 0.00 | 0.10 | 0.10 | 75 | 1009.3 |
| 20260509220351 | 62 | 5 | 0.0 | 0.0 | 0.00 | 0.10 | 0.10 | 76 | 1009.2 |
| 20260509220113 | 62 | 5 | 0.0 | 0.0 | 0.00 | 0.10 | 0.10 | 77 | 1009.3 |
| 20260509215350 | 62 | 9 | 0.0 | 0.0 | 0.00 | 0.10 | 0.10 | 76 | 1009.3 |
| 20260509214850 | 62 | 9 | 0.0 | 2.0 | 0.00 | 0.10 | 0.10 | 76 | 1009.3 |
| 20260509214349 | 62 | 5 | 0.0 | 2.0 | 0.00 | 0.10 | 0.10 | 76 | 1009.3 |
| 20260509213846 | 62 | 9 | 0.0 | 2.0 | 0.00 | 0.10 | 0.10 | 75 | 1009.2 |
| 20260509213346 | 62 | 5 | 1.0 | 3.0 | 0.00 | 0.10 | 0.10 | 75 | 1009.2 |
| 20260509212846 | 62 | 9 | 1.0 | 3.0 | 0.00 | 0.10 | 0.10 | 73 | 1009.2 |
| 20260509212612 | 62 | 9 | 2.0 | 5.0 | 0.00 | 0.10 | 0.10 | 73 | 1009.2 |
| 20260509211847 | 63 | 9 | 1.0 | 5.0 | 0.00 | 0.10 | 0.10 | 75 | 1009.3 |
| 20260509211617 | 63 | 342 | 1.0 | 4.0 | 0.00 | 0.10 | 0.10 | 77 | 1009.2 |
| 20260509210847 | 62 | 342 | 1.0 | 4.0 | 0.00 | 0.10 | 0.10 | 79 | 1009.4 |
| 20260509210603 | 61 | 340 | 1.0 | 3.0 | 0.00 | 0.10 | 0.10 | 79 | 1009.4 |
| 20260509205841 | 61 | 340 | 0.0 | 3.0 | 0.00 | 0.10 | 0.10 | 79 | 1009.4 |
| 20260509205343 | 60 | 340 | 0.0 | 2.0 | 0.00 | 0.10 | 0.10 | 78 | 1009.4 |
| 20260509204842 | 61 | 340 | 0.0 | 2.0 | 0.00 | 0.10 | 0.10 | 79 | 1009.5 |
| 20260509204601 | 61 | 340 | 0.0 | 2.0 | 0.00 | 0.10 | 0.10 | 77 | 1009.4 |
| 20260509203842 | 61 | 340 | 1.0 | 2.0 | 0.00 | 0.10 | 0.10 | 75 | 1009.4 |
| 20260509203610 | 60 | 340 | 1.0 | 2.0 | 0.00 | 0.10 | 0.10 | 75 | 1009.3 |
| 20260509202841 | 61 | 340 | 1.0 | 3.0 | 0.00 | 0.10 | 0.10 | 77 | 1009.4 |
| 20260509202601 | 61 | 340 | 1.0 | 4.0 | 0.00 | 0.10 | 0.10 | 77 | 1009.4 |
| 20260509202319 | 61 | 340 | 2.0 | 6.0 | 0.00 | 0.10 | 0.10 | 79 | 1009.4 |
| 20260509201340 | 61 | 341 | 2.0 | 6.0 | 0.00 | 0.10 | 0.10 | 80 | 1009.5 |
| 20260509200832 | 60 | 335 | 2.0 | 5.0 | 0.00 | 0.10 | 0.10 | 79 | 1009.4 |
| 20260509200328 | 60 | 331 | 1.0 | 5.0 | 0.00 | 0.10 | 0.10 | 80 | 1009.5 |
| 20260509195822 | 60 | 5 | 2.0 | 4.0 | 0.00 | 0.10 | 0.10 | 82 | 1009.5 |
| 20260509195316 | 60 | 9 | 1.0 | 3.0 | 0.01 | 0.10 | 0.10 | 82 | 1009.6 |
| 20260509194814 | 59 | 9 | 1.0 | 5.0 | 0.01 | 0.10 | 0.10 | 82 | 1009.5 |
| 20260509194304 | 59 | 9 | 2.0 | 5.0 | 0.01 | 0.10 | 0.10 | 82 | 1009.5 |
| 20260509193759 | 59 | 9 | 2.0 | 5.0 | 0.01 | 0.10 | 0.10 | 83 | 1009.4 |
| 20260509193252 | 59 | 5 | 1.0 | 4.0 | 0.01 | 0.10 | 0.10 | 85 | 1009.5 |
| 20260509193009 | 58 | 5 | 0.0 | 3.0 | 0.01 | 0.10 | 0.10 | 85 | 1009.7 |
| 20260509192238 | 58 | 5 | 0.0 | 3.0 | 0.01 | 0.10 | 0.10 | 86 | 1009.7 |
| 20260509191734 | 58 | 5 | 0.0 | 3.0 | 0.01 | 0.10 | 0.10 | 86 | 1009.9 |
| 20260509191319 | 58 | 5 | 1.0 | 4.0 | 0.01 | 0.10 | 0.10 | 86 | 1010.1 |
| 20260509190721 | 58 | 5 | 1.0 | 4.0 | 0.01 | 0.10 | 0.10 | 87 | 1010.4 |
| 20260509190703 | 57 | 5 | 1.0 | 4.0 | 0.01 | 0.10 | 0.10 | 86 | 1010.3 |
| 20260509185708 | 57 | 331 | 0.0 | 3.0 | 0.01 | 0.10 | 0.10 | 86 | 1010.5 |
| 20260509185204 | 57 | 330 | 1.0 | 3.0 | 0.00 | 0.09 | 0.09 | 85 | 1010.7 |
| 20260509184658 | 57 | 330 | 0.0 | 3.0 | 0.00 | 0.09 | 0.09 | 84 | 1010.7 |
| 20260509184151 | 57 | 330 | 0.0 | 3.0 | 0.00 | 0.09 | 0.09 | 86 | 1010.8 |
| 20260509183647 | 57 | 330 | 1.0 | 3.0 | 0.00 | 0.09 | 0.09 | 84 | 1010.7 |
| 20260509183140 | 57 | 330 | 1.0 | 4.0 | 0.00 | 0.09 | 0.09 | 84 | 1010.8 |
| 20260509182634 | 57 | 330 | 1.0 | 4.0 | 0.00 | 0.09 | 0.09 | 84 | 1010.8 |
| 20260509182128 | 57 | 330 | 2.0 | 5.0 | 0.00 | 0.09 | 0.09 | 84 | 1010.9 |
| 20260509182112 | 57 | 329 | 2.0 | 5.0 | 0.00 | 0.09 | 0.09 | 84 | 1011.0 |
| 20260509181129 | 57 | 325 | 2.0 | 5.0 | 0.00 | 0.09 | 0.09 | 84 | 1011.1 |
| 20260509180610 | 57 | 323 | 2.0 | 4.0 | 0.00 | 0.09 | 0.09 | 83 | 1011.1 |
| 20260509180117 | 57 | 321 | 2.0 | 5.0 | 0.00 | 0.09 | 0.09 | 84 | 1011.2 |
| 20260509175607 | 57 | 348 | 1.0 | 5.0 | 0.00 | 0.09 | 0.09 | 84 | 1011.2 |
| 20260509175104 | 57 | 355 | 1.0 | 4.0 | 0.00 | 0.09 | 0.09 | 84 | 1011.2 |
| 20260509174823 | 57 | 355 | 2.0 | 5.0 | 0.00 | 0.09 | 0.09 | 83 | 1011.3 |
| 20260509174105 | 57 | 355 | 2.0 | 6.0 | 0.00 | 0.09 | 0.09 | 83 | 1011.1 |